Probability
0 0 0 0 0 0 0 0 0 0 0 0 0 0 0 0 0 0 0 0 0 0 0 0 0 0 0 0 0 0 0 0 0 0 0 0 0 0
0 0 0 0 0 0 0 0 0 0 0 0 0 0 0 0 0 0 0 0 0 0 0 0 0 0 0 0 0 0 0 0 0 0 0 0 0 0
0 0 0 0 0 0 0 0 0 0 0 0 0 0 0 0 0 0 0 0 0 0 0 0 0 0 0 0 0 0 0 0 0 0 0 0 0 0
0 0 0 0 0 0 0 0 0 0 0 0 0 0 0 0 0 0 0 0 0 0 0 0 0 0 0 0 0 0 0 0 0 0 0 0 0 0
0 0 0 0 0 0 0 0 0 0 0 0 0 0 0 0 0 0 0 0 0 0 0 0 0 0 0 0 0 0 0 0 0 0 0 0 0 0
0 0 0 0 0 0 0 0 0 0 0 0 0 0 0 0 0 0 0 0 0 0 0 0 0 0 0 0 0 0 0 0 0 0 0 0 0 0
0 0 0 0 0 0 0 0 0 0 0 0 0 0 0 0 0 0 0 0 0 0 0 0 0 0 0 0 0 0 0 0 0 0 0 0 0 0
0 0 0 0 0 0 0 0 0 0 0 0 0 0 0 0 0 0 0 0 0 0 0 0 0 0 0 0 0 0 0 0 0 0 0 0 0 0
0 0 0 0 0 0 0 0 0 0 0 0 0 0 0 0 0 0 0 0 0 0 0 0 0 0 0 0 0 0 0 0 0 0 0 0 0 0
0 0 0 0 0 0 0 0 0 0 0 0 0 0 0 0 0 0 0 0 0 0 0 0 0 0 0 0 0 0 0 0 0 0 0 0 0 0
0 0 0 0 0 0 0 0 0 0 0 0 0 0 0 0 0 0 0 0 0 0 0 0 0 0 0 0 0 0 0 0 0 0 0 0 0 0
0 0 0 0 0 0 0 0 0 0 0 0 0 0 0 0 0 0 0 0 0 0 0 0 0 0 0 0 0 0 0 0 0 0 0 0 0 0
0 0 0 0 0 0 0 0 0 0 0 0 0 0 0 0 0 0 0 0 0 0 0 0 0 0 0 0 0 0 0 0 0 0 0 0 0 0
0 0 0 0 0 0 0 0 0 0 0 0 0 0 0 0 0 0 0 0 0 0 0 0 0 0 0 0 0 0 0 0 0 0 0 0 0 0
0 0 0 0 0 0 0 0 0 0 0 0 0 0 0 0 0 0 0 0 0 0 0 0 0 0 0 0 0 0 0 0 0 0 0 0 0 0
0 0 0 0 0 0 0 0 0 0 0 0 0 0 0 0 0 0 0 0 0 0 0 0 0 0 0 0 0 0 0 0 0 0 0 0 0 0
0 0 0 0 0 0 0 0 0 0 0 0 0 0 0 0 0 0 0 0 0 0 0 0 0 0 0 0 0 0 0 0 0 0 0 0 0 0
0 0 0 0 0 0 0 0 0 0 0 0 0 0 0 0 0 0 0 0 0 0 0 0 0 0 0 0 0 0 0 0 0 0 0 0 0 0
0 0 0 0 0 0 0 0 0 0 0 0 0 0 0 0 0 0 0 0 0 0 0 0 0 0 0 0 0 0 0 0 0 0 0 0 0 0
0 0 0 0 0 0 0 0 0 0 0 0 0 0 0 0 0 0 0 0 0 0 0 0 0 0 0 0 0 0 0 0 0 0 0 0 0 0
0 0 0 0 0 0 0 0 0 0 0 0 0 0 0 0 0 0 0 0 0 0 0 0 0 0 0 0 0 0 0 0 0 0 0 0 0 0
0 0 0 0 0 0 0 0 0 0 0 0 0 0 0 0 0 0 0 0 0 0 0 0 0 0 0 0 0 0 0 0 0 0 0 0 0 0
0 0 0 0 0 0 0 0 0 0 0 0 0 0 0 0 0 0 0 0 0 0 0 0 0 0 0 0 0 0 0 0 0 0 0 0 0 0
Wind_Speed
5 6 5 4 5 5 4 5 5 5 6 4 2 1 2 4 11 8 8 15 16 15 14 11 8 8 9 12 14 15 15 15 15 16 16 16 16 16
2 2 1 1 1 1 2 3 4 5 4 3 2 1 2 4 11 7 7 16 17 16 14 12 11 12 12 14 15 15 16 16 17 17 17 17 17 17
4 3 3 3 2 1 1 0 1 2 4 1 2 1 2 4 5 5 5 5 5 12 12 12 12 13 14 15 15 16 16 17 17 17 17 17 17 17
6 5 5 4 4 3 2 2 1 1 1 2 2 2 1 3 4 5 4 4 3 7 10 11 12 13 14 15 15 15 16 16 16 17 17 17 17 17
7 6 5 5 4 3 3 3 2 2 2 2 2 2 1 2 3 2 3 2 3 4 8 10 12 13 14 15 15 15 15 15 15 16 16 17 17 17
8 7 6 5 4 4 4 4 3 3 3 2 2 2 2 2 2 2 2 1 1 2 4 6 9 12 13 14 14 14 14 14 15 16 16 16 17 17
9 8 8 9 8 5 4 4 3 3 3 3 2 2 2 2 1 1 1 1 1 1 2 3 3 3 5 10 13 14 15 15 15 16 16 16 17 17
8 7 8 9 11 11 11 9 7 4 3 2 2 2 2 2 1 1 1 1 1 1 1 3 3 5 5 5 12 15 15 15 15 15 15 16 16 17
6 6 6 7 9 6 9 11 10 11 8 3 2 2 1 1 2 1 1 2 3 2 1 3 3 5 5 7 14 14 14 14 13 13 14 14 15 16
5 5 5 5 4 5 5 6 5 5 5 3 2 1 1 2 3 3 3 2 2 3 3 3 3 4 5 5 12 13 12 10 10 10 12 13 14 15
4 4 4 4 7 9 5 4 5 4 6 6 4 3 3 3 3 2 1 1 2 2 2 2 3 3 4 3 5 6 6 7 10 11 12 13 14 15
3 4 6 5 7 7 3 2 3 3 3 4 5 6 5 5 6 1 3 3 2 3 2 2 2 2 5 3 2 3 4 9 13 13 14 15 16 8
2 2 3 7 7 7 4 1 4 2 1 2 3 3 3 3 3 2 2 4 4 5 3 2 2 2 3 5 4 4 4 4 4 7 13 16 15 11
1 2 4 8 7 7 5 5 6 4 1 2 2 2 2 3 3 3 3 3 5 6 5 4 3 4 4 6 7 4 3 5 6 7 6 10 12 14
2 6 7 8 7 4 6 7 4 2 2 2 2 2 2 3 3 3 4 4 5 6 7 7 7 6 6 8 7 7 6 5 5 6 5 4 5 6
3 5 7 7 5 4 4 3 2 2 2 2 3 3 2 2 2 2 3 3 4 4 5 6 7 7 8 9 10 11 8 7 4 4 6 7 7 7
2 0 1 2 2 2 2 2 2 2 2 2 2 3 3 3 4 3 3 4 4 5 5 3 5 6 9 9 10 11 11 10 9 7 6 9 8 8
3 1 2 2 3 3 3 3 2 3 3 3 3 3 4 4 5 5 5 5 6 7 7 6 5 5 5 8 14 13 11 10 8 7 7 10 12 8
1 2 2 3 3 3 3 3 3 3 3 3 4 4 4 5 5 6 6 6 7 8 8 6 5 6 9 10 7 12 10 8 7 8 8 10 13 10
2 3 3 4 4 4 4 4 4 4 4 4 4 5 5 5 6 6 7 7 8 9 9 7 7 8 10 10 9 8 13 12 10 11 10 10 11 16
3 4 4 4 4 4 4 4 5 5 5 5 5 5 5 5 6 7 7 12 11 9 10 10 8 13 9 7 10 11 8 14 16 12 10 11 13 12
4 4 4 4 4 4 5 5 5 5 6 6 6 6 6 6 8 9 9 9 9 9 11 10 8 7 7 11 14 15 15 11 14 23 25 22 13 9
4 4 5 5 5 4 5 5 7 6 6 6 6 6 6 7 7 8 9 10 10 11 11 11 9 8 10 11 13 14 17 16 12 12 13 20 27 31
Wind_Direction
256 249 243 241 232 229 219 205 211 229 234 212 199 217 183 165 174 169 167 193 201 211 221 230 241 250 258 266 270 273 277 279 279 277 276 274 272 271
327 311 292 310 284 250 237 229 219 229 237 180 170 141 169 168 174 162 175 191 204 210 219 228 239 248 256 262 265 270 273 274 275 274 274 273 272 271
22 35 36 33 29 22 17 263 232 211 230 161 108 104 136 158 153 142 155 176 201 216 226 235 243 251 257 262 266 269 271 272 273 274 274 274 273 273
35 44 41 43 45 33 36 34 28 48 173 177 128 122 131 155 138 145 154 166 177 219 234 245 253 259 263 266 268 269 270 271 271 271 271 272 272 272
41 43 36 42 43 35 41 42 32 35 57 116 119 105 104 134 128 136 153 146 186 225 245 257 262 267 269 269 270 271 272 272 271 269 269 270 270 271
44 44 39 39 44 43 44 42 41 45 55 83 95 102 105 103 116 130 147 147 202 233 254 262 267 272 276 278 279 279 279 277 273 271 269 268 268 268
45 41 40 46 53 59 63 53 49 50 53 59 66 72 83 97 116 124 150 123 223 235 250 262 272 272 278 280 280 278 274 270 267 267 267 267 266 265
43 36 34 36 43 50 59 60 58 57 49 45 48 60 67 72 90 111 118 116 268 238 214 258 248 261 259 248 264 267 265 265 266 267 268 269 269 269
43 38 38 35 39 35 41 43 42 45 49 60 62 55 57 94 122 116 155 184 222 236 225 272 247 259 258 263 271 270 268 268 268 269 271 272 274 274
41 40 37 18 26 47 41 35 28 21 30 60 107 155 176 182 172 177 192 213 253 247 198 260 270 261 268 264 276 274 268 268 273 279 283 284 284 282
21 25 29 7 20 41 44 29 19 5 19 30 29 346 311 290 241 164 173 196 292 276 211 229 280 294 284 279 286 280 275 286 291 291 289 289 286 284
8 4 6 10 12 26 55 35 3 332 347 355 357 351 348 332 324 246 180 182 215 278 265 224 274 327 313 291 265 270 280 284 284 284 288 290 287 282
12 349 331 347 352 350 5 344 300 322 356 339 326 324 330 333 331 320 195 174 188 232 245 203 232 227 250 290 283 242 238 248 260 270 282 284 280 271
337 302 300 326 337 341 345 315 328 10 9 329 321 320 323 316 310 308 286 241 220 226 232 204 221 222 253 273 278 274 243 237 246 259 253 271 274 273
293 314 322 329 337 339 325 333 2 12 322 310 301 289 270 267 284 297 293 277 263 251 241 219 225 239 245 259 269 279 291 270 240 246 248 240 246 254
311 322 338 345 353 341 337 351 351 301 285 267 274 275 276 277 278 277 284 299 293 281 250 234 229 234 252 257 265 273 271 274 268 240 249 259 256 247
283 290 335 333 334 326 318 310 306 313 317 296 284 288 291 292 290 288 278 285 276 285 292 270 239 234 241 251 262 262 264 263 264 269 269 274 265 250
339 318 298 298 296 298 301 300 294 288 281 275 275 275 284 289 291 287 280 278 280 281 283 285 286 283 262 249 236 252 256 260 263 258 254 269 275 260
341 284 278 279 278 280 278 273 273 274 272 270 267 267 269 274 279 282 280 276 275 276 276 273 269 271 279 282 261 230 242 257 263 264 258 259 270 273
257 263 266 267 268 268 267 267 270 274 269 264 262 261 260 263 269 270 269 267 271 274 274 262 247 245 254 270 276 265 251 256 263 268 269 266 267 272
265 262 259 260 262 262 263 262 263 265 265 262 260 258 256 256 263 264 265 270 271 271 271 268 255 260 264 267 269 268 254 249 251 256 264 272 277 276
262 262 262 259 258 259 261 262 264 264 264 260 259 258 254 251 259 264 265 266 266 264 266 270 267 261 254 259 266 275 279 271 261 264 262 257 260 264
259 260 261 262 258 256 256 258 262 264 261 259 260 259 255 257 259 261 263 264 266 268 271 275 273 262 259 259 266 271 275 278 278 273 264 256 256 258